Location: *
(51.8167°N, 12.5000°E)
Time: 11:41:08
(UTC+00:00)

ASTEX 1 - Pass Details

Date: 16 September 2019
Orbit: 719 x 745 km, 92.7° (Epoch: 13 October)

Event Time Altitude Azimuth Distance (km) Brightness Sun altitude
Rises 18:49:52 0° 5° (N) 3,151 6.9 -13.8°
Reaches altitude 10° 18:52:10 10° 5° (N) 2,223 6.1 -14.1°
Maximum altitude 18:57:05 88° 280° (W) 728 3.4 -14.8°
Drops below altitude 10° 19:01:57 10° 188° (S) 2,203 5.7 -15.5°
Sets 19:04:13 0° 189° (S) 3,119 6.5 -15.8°
